[Date Prev][Date Next][Thread Prev][Thread Next] - [Date Index][Thread Index][Author Index]
2 Line ISS Keps 4-5
- Subject: [sarex] 2 Line ISS Keps 4-5
- From: "Dave Larsen PhD" <doc@xxxxxxxxxxx>
- Date: Mon, 5 Apr 2004 04:09:00 -0700
ISS
1 25544U 98067A 04096.22083333 .00027805 00000-0 25086-3 0 5052
2 25544 51.6298 337.5786 0010875 357.6395 138.7688 15.67861348306864
----
Via the sarex mailing list at AMSAT.ORG courtesy of AMSAT-NA.
To unsubscribe, send "unsubscribe sarex" to Majordomo@amsat.org
AMSAT Home